Weather in Nuevo Laredo

Mexico     27°29′10″N   99°30′42″W
temp.,
°C
wind,
m/s
gust,
m/s
humid.,
%
clouds,
%
prec.,
mm/h
press.,
hPa
HPBL,
m
16 may, sun
sun1601:00+24se81382100 0.3 1013753
04:00+23se5118769 0.0 1011703
07:00+23ese499065 0.1 1012487
10:00+26sse677287 0.2 1013882
13:00+30sse895264 0.3 10111503
16:00+33sse99451 0.0 10091540
19:00+32se884822 0.0 10081604
22:00+27se1014700 0.0 1009722
17 may, mon
mon1701:00+25sse9158230 0.0 1009698
04:00+24se7138740 0.0 1008615
07:00+24sse7128765 0.0 1008624
10:00+28sse810610 0.0 1009821
13:00+34sse99420 0.0 10081336
16:00+37sse99320 0.0 10051680
19:00+36se99370 0.0 10041772
22:00+28se1116640 0.0 1005666
18 may, tue
tue1801:00+26se1017765 0.0 1007740
04:00+25ese8138175 0.0 1006908
07:00+25se6118155 0.1 1007902
10:00+29sse10126462 0.2 10081277
13:00+31sse8105252 0.2 10061603
16:00+37s66330 0.0 10032330
19:00+36se66330 0.0 10022241
22:00+29se1114650 0.0 1004693
19 may, wed
wed1901:00+26se1016740 0.8 1005771
04:00+26sse71482100 0.0 1005897
07:00+25se71383100 0.0 1006785
10:00+29sse10126447 0.2 10061250
13:00+31se91153100 3.9 10061417
16:00+19ne121790100 13.0 1008625
19:00+21ne91584100 27.7 1008540
22:00+21ene61177100 3.3 1007215
20 may, thu
thu2001:00+21s5782100 3.3 1009452
04:00+20sse128394 0.0 1009111
07:00+20ese348384 0.0 1010158
10:00+24sse346192 0.0 1011564
13:00+29sse45421 0.0 10111103
16:00+32sse55390 0.0 10091522
19:00+31se77450 0.0 10081475
22:00+27ese711650 0.0 1010712